User: anonymous
Location: Unspecified
(0.0000°N, 0.0000°E)
Time: 14:23:27
(UTC+00:00)
Language:

Tiangong 1 - Orbit

View from above orbital plane
View from above orbital plane
View from above satellite
View from above satellite

Ground track
Ground track

The orbit data is extracted from the following two-line orbital elements,

1 37820U 11053A   14265.96000832  .00038327  00000-0  34346-3 0  4188
2 37820 042.7684 082.9752 0007583 289.0135 201.9504 15.67583160171391
Epoch (UTC): 22 September 2014 23:02:24
Eccentricity: 0.0007583
inclination: 42.7684°
perigee height: 361 km
apogee height: 371 km
right ascension of ascending node: 82.9752°
argument of perigee: 289.0135°
revolutions per day: 15.67583160
mean anomaly at epoch: 201.9504°
orbit number at epoch: 17139

The dashed part of the orbit path shows where the satellite is in the earth's shadow,  

DLR